AWW25KL EGFF-LEBB

Flight info

Callsign AWW25KL
Flight time 1h 20m
Altitude 35000
Route EXMOR N92 DAWLY N864 BHD DCT SALCO DCT NENEM N867 MAPAX
Aircraft A320/M-SDE3FGHIRWY/LB1

Departure

Time 2026-05-05 18:05
Airport Cardiff International Airport (EGFF)

Arrival

Time 2026-05-05 19:26
Airport Bilbao Airport (LEBB)
Time Latitude Longitude Altitude Speed Heading
2026-05-05 17:54 51.39748 -3.33815 221 ft 0 kts 26°
2026-05-05 17:57 51.39747 -3.33816 221 ft 2 kts 26°
2026-05-05 17:57 51.39724 -3.33834 224 ft 4 kts 23°
2026-05-05 17:58 51.39700 -3.33850 222 ft 4 kts 16°
2026-05-05 17:58 51.39689 -3.33855 223 ft 0 kts 16°
2026-05-05 18:01 51.39714 -3.33851 221 ft 2 kts 335°
2026-05-05 18:01 51.39714 -3.33869 222 ft 4 kts 277°
2026-05-05 18:02 51.39726 -3.33955 221 ft 11 kts 286°
2026-05-05 18:02 51.39771 -3.34103 222 ft 18 kts 297°
2026-05-05 18:02 51.39837 -3.34306 224 ft 22 kts 298°
2026-05-05 18:02 51.39910 -3.34536 224 ft 15 kts 297°
2026-05-05 18:03 51.39971 -3.34727 220 ft 24 kts 297°
2026-05-05 18:03 51.40043 -3.34957 220 ft 25 kts 297°
2026-05-05 18:03 51.40107 -3.35157 221 ft 14 kts 297°
2026-05-05 18:03 51.40155 -3.35327 223 ft 20 kts 282°
2026-05-05 18:04 51.40132 -3.35459 222 ft 2 kts 230°
2026-05-05 18:04 51.40099 -3.35507 216 ft 11 kts 212°
2026-05-05 18:04 51.40041 -3.35522 216 ft 8 kts 148°
2026-05-05 18:04 51.40016 -3.35457 216 ft 0 kts 114°
2026-05-05 18:05 51.39986 -3.35360 217 ft 46 kts 118°
2026-05-05 18:05 51.39684 -3.34401 222 ft 140 kts 117°
2026-05-05 18:05 51.39184 -3.32830 854 ft 158 kts 116°
2026-05-05 18:05 51.38667 -3.31254 1944 ft 161 kts 113°
2026-05-05 18:06 51.38157 -3.29559 2840 ft 181 kts 111°
2026-05-05 18:06 51.37791 -3.28295 3402 ft 197 kts 111°
2026-05-05 18:06 51.36633 -3.25676 4571 ft 247 kts 141°
2026-05-05 18:06 51.34976 -3.24460 5239 ft 273 kts 165°
2026-05-05 18:07 51.33088 -3.23928 5887 ft 279 kts 178°
2026-05-05 18:07 51.31158 -3.24222 6515 ft 280 kts 195°
2026-05-05 18:07 51.29331 -3.25311 7131 ft 281 kts 211°
2026-05-05 18:07 51.27850 -3.27336 7764 ft 282 kts 231°
2026-05-05 18:08 51.26589 -3.29766 8401 ft 284 kts 232°
2026-05-05 18:08 51.25143 -3.31960 9053 ft 291 kts 217°
2026-05-05 18:08 51.23340 -3.33442 9716 ft 293 kts 200°
2026-05-05 18:08 51.21348 -3.34446 10348 ft 313 kts 198°
2026-05-05 18:09 51.19159 -3.35451 10974 ft 339 kts 197°
2026-05-05 18:09 51.16813 -3.36231 11604 ft 346 kts 188°
2026-05-05 18:09 51.14437 -3.36622 12236 ft 348 kts 187°
2026-05-05 18:09 51.12012 -3.37018 12889 ft 350 kts 187°
2026-05-05 18:10 51.09579 -3.37427 13562 ft 352 kts 187°
2026-05-05 18:10 51.07134 -3.37846 14183 ft 355 kts 187°
2026-05-05 18:10 51.04663 -3.38273 14792 ft 359 kts 187°
2026-05-05 18:10 51.02159 -3.38705 15412 ft 363 kts 188°
2026-05-05 18:11 50.99637 -3.39146 16045 ft 367 kts 188°
2026-05-05 18:11 50.97085 -3.39590 16690 ft 371 kts 187°
2026-05-05 18:11 50.94506 -3.40036 17351 ft 376 kts 188°
2026-05-05 18:11 50.91899 -3.40486 18025 ft 380 kts 188°
2026-05-05 18:12 50.89251 -3.40942 18644 ft 383 kts 188°
2026-05-05 18:12 50.86605 -3.41399 19253 ft 384 kts 187°
2026-05-05 18:12 50.83940 -3.41859 19868 ft 386 kts 187°
2026-05-05 18:12 50.81257 -3.42319 20489 ft 390 kts 188°
2026-05-05 18:13 50.78547 -3.42783 21133 ft 393 kts 188°
2026-05-05 18:13 50.75824 -3.43249 21792 ft 396 kts 188°
2026-05-05 18:13 50.73078 -3.43720 22298 ft 398 kts 188°
2026-05-05 18:13 50.70315 -3.44194 22583 ft 400 kts 188°
2026-05-05 18:14 50.67545 -3.44667 22857 ft 401 kts 188°
2026-05-05 18:14 50.64765 -3.45141 23138 ft 402 kts 188°
2026-05-05 18:14 50.61978 -3.45616 23407 ft 404 kts 188°
2026-05-05 18:14 50.59178 -3.46093 23652 ft 405 kts 188°
2026-05-05 18:15 50.56368 -3.46573 23893 ft 407 kts 188°
2026-05-05 18:15 50.53548 -3.47052 24129 ft 408 kts 188°
2026-05-05 18:15 50.50722 -3.47531 24367 ft 409 kts 188°
2026-05-05 18:15 50.47892 -3.48010 24591 ft 410 kts 188°
2026-05-05 18:16 50.45054 -3.48489 24832 ft 411 kts 188°
2026-05-05 18:16 50.42247 -3.48962 25061 ft 412 kts 188°
2026-05-05 18:16 50.39393 -3.49395 25101 ft 412 kts 185°
2026-05-05 18:16 50.36520 -3.49555 25291 ft 414 kts 184°
2026-05-05 18:17 50.33633 -3.49710 25608 ft 416 kts 183°
2026-05-05 18:17 50.30731 -3.49867 25986 ft 418 kts 183°
2026-05-05 18:17 50.27822 -3.50025 26374 ft 419 kts 183°
2026-05-05 18:17 50.24900 -3.50185 26759 ft 421 kts 183°
2026-05-05 18:18 50.21968 -3.50345 27151 ft 423 kts 184°
2026-05-05 18:18 50.19019 -3.50506 27555 ft 425 kts 184°
2026-05-05 18:18 50.16084 -3.50666 27956 ft 427 kts 184°
2026-05-05 18:18 50.13134 -3.50828 28359 ft 429 kts 183°
2026-05-05 18:19 50.10122 -3.50995 28781 ft 431 kts 183°
2026-05-05 18:19 50.07123 -3.51159 29208 ft 432 kts 183°
2026-05-05 18:19 50.04108 -3.51322 29639 ft 435 kts 183°
2026-05-05 18:19 50.01071 -3.51486 30065 ft 437 kts 182°
2026-05-05 18:20 49.98020 -3.51651 30440 ft 440 kts 182°
2026-05-05 18:20 49.94954 -3.51817 30817 ft 442 kts 182°
2026-05-05 18:20 49.91872 -3.51983 31197 ft 443 kts 182°
2026-05-05 18:20 49.88793 -3.52152 31582 ft 444 kts 182°
2026-05-05 18:21 49.85717 -3.52319 31971 ft 442 kts 182°
2026-05-05 18:21 49.82652 -3.52484 32360 ft 441 kts 182°
2026-05-05 18:21 49.79575 -3.52649 32771 ft 443 kts 182°
2026-05-05 18:21 49.76486 -3.52814 33177 ft 444 kts 182°
2026-05-05 18:22 49.73404 -3.52932 33595 ft 444 kts 179°
2026-05-05 18:22 49.70318 -3.52729 34010 ft 444 kts 177°
2026-05-05 18:22 49.67226 -3.52491 34363 ft 446 kts 177°
2026-05-05 18:22 49.64125 -3.52256 34719 ft 446 kts 177°
2026-05-05 18:23 49.61026 -3.52024 34908 ft 446 kts 177°
2026-05-05 18:23 49.54832 -3.51566 34963 ft 445 kts 177°
2026-05-05 18:24 49.48642 -3.51109 34963 ft 445 kts 177°
2026-05-05 18:24 49.42416 -3.50653 34966 ft 450 kts 177°
2026-05-05 18:25 49.36179 -3.50195 34963 ft 448 kts 177°
2026-05-05 18:25 49.29978 -3.49742 34962 ft 450 kts 177°
2026-05-05 18:26 49.23726 -3.49286 34964 ft 450 kts 177°
2026-05-05 18:26 49.17457 -3.48831 34933 ft 452 kts 177°
2026-05-05 18:27 49.11176 -3.48374 34963 ft 452 kts 177°
2026-05-05 18:27 49.04888 -3.47920 34957 ft 453 kts 176°
2026-05-05 18:28 48.95434 -3.47237 34976 ft 453 kts 176°
2026-05-05 18:28 48.89130 -3.46783 34967 ft 454 kts 177°
2026-05-05 18:29 48.82823 -3.46329 34982 ft 453 kts 176°
2026-05-05 18:29 48.76515 -3.45878 34971 ft 454 kts 176°
2026-05-05 18:30 48.71277 -3.45503 34976 ft 453 kts 177°
2026-05-05 18:30 48.64975 -3.45055 34967 ft 453 kts 176°
2026-05-05 18:31 48.58677 -3.44607 34989 ft 453 kts 176°
2026-05-05 18:31 48.52397 -3.44162 34994 ft 451 kts 176°
2026-05-05 18:32 48.46134 -3.43720 34984 ft 450 kts 176°
2026-05-05 18:32 48.39889 -3.43279 34976 ft 449 kts 176°
2026-05-05 18:33 48.33663 -3.42843 34974 ft 447 kts 176°
2026-05-05 18:33 48.27458 -3.42407 34963 ft 446 kts 176°
2026-05-05 18:34 48.21271 -3.41974 34954 ft 445 kts 176°
2026-05-05 18:34 48.15084 -3.41540 34926 ft 446 kts 176°
2026-05-05 18:35 48.08881 -3.41110 34917 ft 447 kts 176°
2026-05-05 18:35 48.02662 -3.40676 34940 ft 448 kts 176°
2026-05-05 18:36 47.96428 -3.40245 34942 ft 449 kts 176°
2026-05-05 18:36 47.90219 -3.39815 34962 ft 450 kts 176°
2026-05-05 18:37 47.83919 -3.39381 34967 ft 451 kts 176°
2026-05-05 18:37 47.77649 -3.38948 34978 ft 451 kts 176°
2026-05-05 18:38 47.71370 -3.38519 34976 ft 452 kts 176°
2026-05-05 18:38 47.65088 -3.38088 34969 ft 452 kts 176°
2026-05-05 18:39 47.58808 -3.37658 34970 ft 452 kts 176°
2026-05-05 18:39 47.52570 -3.37234 34957 ft 452 kts 175°
2026-05-05 18:40 47.46284 -3.36807 34947 ft 452 kts 176°
2026-05-05 18:40 47.40002 -3.36381 34946 ft 452 kts 176°
2026-05-05 18:41 47.36305 -3.36130 34946 ft 452 kts 176°
2026-05-05 18:41 47.30349 -3.35729 34932 ft 452 kts 175°
2026-05-05 18:42 47.24060 -3.35304 34934 ft 452 kts 176°
2026-05-05 18:42 47.17770 -3.34881 34936 ft 453 kts 175°
2026-05-05 18:43 47.11477 -3.34459 34932 ft 453 kts 176°
2026-05-05 18:43 47.05175 -3.34036 34933 ft 453 kts 176°
2026-05-05 18:44 46.98864 -3.33615 34934 ft 454 kts 175°
2026-05-05 18:44 46.92553 -3.33194 34936 ft 454 kts 176°
2026-05-05 18:45 46.86234 -3.32772 34934 ft 455 kts 176°
2026-05-05 18:45 46.79907 -3.32352 34930 ft 455 kts 176°
2026-05-05 18:46 46.73577 -3.31934 34933 ft 456 kts 176°
2026-05-05 18:46 46.67245 -3.31515 34942 ft 456 kts 176°
2026-05-05 18:47 46.60907 -3.31099 34933 ft 456 kts 176°
2026-05-05 18:47 46.54565 -3.30680 34943 ft 456 kts 176°
2026-05-05 18:48 46.48221 -3.30267 34933 ft 456 kts 176°
2026-05-05 18:48 46.41883 -3.29851 34943 ft 456 kts 176°
2026-05-05 18:49 46.35547 -3.29439 34932 ft 456 kts 176°
2026-05-05 18:49 46.29262 -3.29028 34931 ft 455 kts 177°
2026-05-05 18:50 46.22930 -3.28618 34917 ft 456 kts 176°
2026-05-05 18:50 46.16593 -3.28207 34933 ft 455 kts 176°
2026-05-05 18:51 46.10262 -3.27797 34919 ft 456 kts 177°
2026-05-05 18:51 46.03914 -3.27388 34920 ft 457 kts 177°
2026-05-05 18:52 45.97565 -3.26980 34931 ft 457 kts 177°
2026-05-05 18:52 45.91211 -3.26571 34934 ft 457 kts 177°
2026-05-05 18:53 45.84853 -3.26163 34932 ft 458 kts 177°
2026-05-05 18:53 45.78488 -3.25757 34938 ft 458 kts 177°
2026-05-05 18:54 45.72119 -3.25351 34934 ft 458 kts 178°
2026-05-05 18:54 45.65748 -3.24944 34943 ft 458 kts 178°
2026-05-05 18:55 45.59380 -3.24540 34940 ft 458 kts 178°
2026-05-05 18:55 45.53007 -3.24136 34939 ft 458 kts 178°
2026-05-05 18:56 45.46636 -3.23734 34944 ft 458 kts 178°
2026-05-05 18:56 45.40263 -3.23332 34941 ft 459 kts 178°
2026-05-05 18:57 45.33887 -3.22932 34957 ft 458 kts 178°
2026-05-05 18:57 45.27512 -3.22529 34937 ft 459 kts 178°
2026-05-05 18:58 45.21135 -3.22132 34952 ft 459 kts 178°
2026-05-05 18:58 45.14757 -3.21733 34948 ft 459 kts 178°
2026-05-05 18:59 45.08375 -3.21335 34954 ft 459 kts 178°
2026-05-05 18:59 45.01987 -3.20936 34939 ft 460 kts 178°
2026-05-05 19:00 44.95602 -3.20541 34803 ft 457 kts 178°
2026-05-05 19:00 44.92485 -3.20347 34317 ft 454 kts 179°
2026-05-05 19:00 44.89286 -3.20150 33432 ft 455 kts 178°
2026-05-05 19:01 44.86142 -3.19962 32258 ft 461 kts 177°
2026-05-05 19:01 44.82944 -3.19772 31383 ft 459 kts 176°
2026-05-05 19:01 44.79757 -3.19580 30815 ft 458 kts 176°
2026-05-05 19:01 44.76584 -3.19387 30510 ft 454 kts 176°
2026-05-05 19:02 44.73434 -3.19193 30269 ft 452 kts 175°
2026-05-05 19:02 44.70281 -3.18999 30025 ft 456 kts 175°
2026-05-05 19:02 44.67108 -3.18803 29736 ft 456 kts 175°
2026-05-05 19:02 44.63946 -3.18608 29446 ft 453 kts 175°
2026-05-05 19:03 44.60802 -3.18415 29163 ft 451 kts 175°
2026-05-05 19:03 44.57668 -3.18222 28874 ft 450 kts 175°
2026-05-05 19:03 44.54554 -3.18027 28599 ft 447 kts 177°
2026-05-05 19:03 44.51457 -3.17835 28320 ft 447 kts 177°
2026-05-05 19:04 44.48356 -3.17645 28044 ft 448 kts 177°
2026-05-05 19:04 44.45246 -3.17456 27769 ft 445 kts 177°
2026-05-05 19:04 44.42175 -3.17269 27497 ft 438 kts 177°
2026-05-05 19:04 44.39127 -3.17084 27236 ft 438 kts 177°
2026-05-05 19:05 44.36074 -3.16895 26965 ft 438 kts 178°
2026-05-05 19:05 44.33029 -3.16705 26704 ft 438 kts 178°
2026-05-05 19:05 44.29999 -3.16520 26442 ft 434 kts 178°
2026-05-05 19:05 44.26997 -3.16338 26183 ft 430 kts 178°
2026-05-05 19:06 44.24000 -3.16157 25934 ft 432 kts 178°
2026-05-05 19:06 44.21001 -3.15975 25678 ft 431 kts 178°
2026-05-05 19:06 44.18014 -3.15795 25427 ft 428 kts 178°
2026-05-05 19:06 44.15048 -3.15614 25177 ft 425 kts 179°
2026-05-05 19:07 44.12095 -3.15436 24923 ft 424 kts 179°
2026-05-05 19:07 44.09148 -3.15259 24683 ft 423 kts 179°
2026-05-05 19:07 44.06211 -3.15071 24436 ft 422 kts 177°
2026-05-05 19:07 44.03307 -3.14520 24199 ft 421 kts 169°
2026-05-05 19:08 44.00443 -3.13679 23962 ft 420 kts 169°
2026-05-05 19:08 43.97590 -3.12839 23716 ft 418 kts 169°
2026-05-05 19:08 43.94755 -3.12009 23462 ft 416 kts 169°
2026-05-05 19:08 43.91928 -3.11188 23183 ft 414 kts 169°
2026-05-05 19:09 43.89111 -3.10373 22903 ft 413 kts 169°
2026-05-05 19:09 43.86302 -3.09562 22631 ft 411 kts 169°
2026-05-05 19:09 43.83509 -3.08756 22357 ft 409 kts 169°
2026-05-05 19:09 43.80724 -3.07953 22084 ft 408 kts 169°
2026-05-05 19:10 43.77954 -3.07154 21815 ft 406 kts 169°
2026-05-05 19:10 43.75193 -3.06359 21546 ft 404 kts 169°
2026-05-05 19:10 43.72447 -3.05569 21277 ft 403 kts 170°
2026-05-05 19:10 43.69705 -3.04781 21032 ft 401 kts 170°
2026-05-05 19:11 43.66983 -3.03963 20715 ft 401 kts 166°
2026-05-05 19:11 43.64416 -3.02435 19955 ft 406 kts 149°
2026-05-05 19:11 43.62240 -2.99958 19095 ft 405 kts 131°
2026-05-05 19:11 43.60740 -2.96773 18592 ft 390 kts 112°
2026-05-05 19:12 43.60067 -2.93165 18337 ft 391 kts 93°
2026-05-05 19:12 43.60241 -2.89464 18065 ft 385 kts 75°
2026-05-05 19:12 43.61215 -2.86077 17795 ft 378 kts 59°
2026-05-05 19:12 43.62379 -2.82820 17461 ft 380 kts 67°
2026-05-05 19:13 43.62938 -2.79269 16968 ft 379 kts 85°
2026-05-05 19:13 43.62758 -2.75727 16466 ft 373 kts 99°
2026-05-05 19:13 43.62039 -2.72327 15915 ft 366 kts 110°
2026-05-05 19:13 43.60982 -2.69171 15385 ft 359 kts 118°
2026-05-05 19:14 43.59713 -2.66239 14890 ft 352 kts 123°
2026-05-05 19:14 43.58306 -2.63507 14364 ft 347 kts 128°
2026-05-05 19:14 43.56770 -2.60933 13878 ft 360 kts 132°
2026-05-05 19:14 43.54982 -2.58331 13302 ft 383 kts 136°
2026-05-05 19:15 43.52998 -2.55845 12790 ft 384 kts 141°
2026-05-05 19:15 43.50911 -2.53596 12200 ft 378 kts 145°
2026-05-05 19:15 43.48747 -2.51610 11556 ft 369 kts 149°
2026-05-05 19:15 43.46550 -2.49905 11035 ft 357 kts 154°
2026-05-05 19:16 43.44344 -2.48465 10506 ft 346 kts 158°
2026-05-05 19:16 43.42849 -2.47636 10254 ft 338 kts 161°
2026-05-05 19:16 43.40684 -2.46629 10070 ft 319 kts 165°
2026-05-05 19:16 43.38599 -2.45859 9886 ft 303 kts 168°
2026-05-05 19:17 43.36589 -2.45289 9501 ft 295 kts 172°
2026-05-05 19:17 43.34581 -2.44890 9346 ft 295 kts 176°
2026-05-05 19:17 43.32551 -2.44882 9211 ft 289 kts 194°
2026-05-05 19:17 43.30672 -2.45766 9083 ft 285 kts 204°
2026-05-05 19:18 43.28828 -2.46773 8953 ft 285 kts 205°
2026-05-05 19:18 43.26992 -2.47766 8706 ft 283 kts 204°
2026-05-05 19:18 43.25151 -2.48736 8450 ft 284 kts 203°
2026-05-05 19:18 43.23283 -2.49707 8192 ft 298 kts 201°
2026-05-05 19:19 43.21341 -2.50709 7935 ft 297 kts 205°
2026-05-05 19:19 43.19466 -2.51770 7682 ft 286 kts 205°
2026-05-05 19:19 43.17566 -2.52406 7425 ft 280 kts 188°
2026-05-05 19:19 43.15611 -2.52278 7182 ft 281 kts 175°
2026-05-05 19:20 43.13725 -2.52422 6933 ft 267 kts 201°
2026-05-05 19:20 43.12168 -2.53676 6692 ft 259 kts 229°
2026-05-05 19:20 43.11244 -2.55718 6455 ft 252 kts 256°
2026-05-05 19:20 43.11155 -2.58059 6201 ft 246 kts 284°
2026-05-05 19:21 43.11917 -2.60103 5948 ft 242 kts 313°
2026-05-05 19:21 43.13298 -2.61384 5585 ft 242 kts 334°
2026-05-05 19:21 43.14867 -2.62210 5187 ft 241 kts 339°
2026-05-05 19:21 43.16456 -2.62923 4747 ft 240 kts 340°
2026-05-05 19:22 43.18026 -2.63647 4479 ft 236 kts 336°
2026-05-05 19:22 43.19422 -2.64682 4421 ft 221 kts 323°
2026-05-05 19:22 43.20520 -2.66035 4420 ft 205 kts 311°
2026-05-05 19:22 43.21368 -2.67525 4400 ft 192 kts 304°
2026-05-05 19:23 43.22049 -2.69087 4115 ft 191 kts 299°
2026-05-05 19:23 43.22649 -2.70713 3806 ft 188 kts 297°
2026-05-05 19:23 43.23195 -2.72201 3498 ft 162 kts 297°
2026-05-05 19:23 43.23667 -2.73489 3244 ft 142 kts 297°
2026-05-05 19:24 43.24087 -2.74631 3014 ft 126 kts 297°
2026-05-05 19:24 43.24466 -2.75648 2843 ft 117 kts 296°
2026-05-05 19:24 43.24832 -2.76614 2654 ft 110 kts 298°
2026-05-05 19:24 43.25177 -2.77538 2289 ft 110 kts 297°
2026-05-05 19:25 43.25565 -2.78486 1842 ft 116 kts 307°
2026-05-05 19:25 43.26128 -2.79301 1342 ft 122 kts 315°
2026-05-05 19:25 43.26610 -2.80178 965 ft 115 kts 295°
2026-05-05 19:25 43.26807 -2.81311 563 ft 112 kts 282°
2026-05-05 19:26 43.26919 -2.81928 312 ft 0 kts 289°